TimeEDT,TemperatureF,Dew PointF,Humidity,Sea Level PressureIn,VisibilityMPH,Wind Direction,Wind SpeedMPH,Gust SpeedMPH,PrecipitationIn,Events,Conditions,WindDirDegrees,DateUTC
12:15 AM,46.4,46.4,100,29.88,0.2,South,12.7,23.0,N/A,Rain,Light Rain,170,2013-03-12 04:15:00
12:35 AM,46.4,46.4,100,29.88,0.2,South,12.7,23.0,0.02,Rain,Light Rain,180,2013-03-12 04:35:00
12:55 AM,46.4,46.4,100,29.88,0.2,South,13.8,25.3,0.01,Rain,Light Rain,180,2013-03-12 04:55:00
1:15 AM,46.4,46.4,100,29.86,0.2,South,17.3,21.9,0.02,Rain,Light Rain,170,2013-03-12 05:15:00
1:35 AM,46.4,46.4,100,29.86,0.2,South,13.8,26.5,0.02,Rain,Heavy Rain,180,2013-03-12 05:35:00
1:55 AM,46.4,46.4,100,29.84,0.2,South,16.1,26.5,N/A,,Unknown,180,2013-03-12 05:55:00
2:15 AM,46.4,46.4,100,29.86,0.2,South,15.0,20.7,N/A,,Unknown,180,2013-03-12 06:15:00
2:35 AM,46.4,46.4,100,29.86,0.2,South,16.1,25.3,0.01,,Unknown,180,2013-03-12 06:35:00
2:55 AM,46.4,46.4,100,29.85,0.2,South,12.7,19.6,0.01,Rain,Light Rain,190,2013-03-12 06:55:00
3:15 AM,46.4,46.4,100,29.85,0.2,South,11.5,16.1,0.02,Rain,Light Rain,190,2013-03-12 07:15:00
3:35 AM,46.4,46.4,100,29.83,0.5,South,12.7,18.4,0.04,Rain,Light Rain,190,2013-03-12 07:35:00
3:55 AM,46.4,46.4,100,29.82,0.2,South,9.2,17.3,0.01,Rain,Light Rain,170,2013-03-12 07:55:00
4:15 AM,46.4,46.4,100,29.81,0.5,SSW,10.4,17.3,0.03,Rain,Light Rain,200,2013-03-12 08:15:00
4:16 AM,46.4,46.4,100,29.81,0.5,South,9.2,17.3,0.03,Rain,Light Rain,190,2013-03-12 08:16:00
4:55 AM,46.4,46.4,100,29.79,0.2,South,5.8,-,0.01,Rain,Light Rain,180,2013-03-12 08:55:00
5:15 AM,46.4,46.4,100,29.79,0.2,SSE,6.9,-,0.01,Rain,Light Rain,160,2013-03-12 09:15:00
5:35 AM,46.4,46.4,100,29.77,0.8,South,5.8,-,0.02,,Heavy Drizzle,190,2013-03-12 09:35:00
5:55 AM,46.4,46.4,100,29.77,0.5,South,5.8,-,N/A,,Drizzle,170,2013-03-12 09:55:00
6:15 AM,46.4,46.4,100,29.78,0.5,WNW,5.8,-,0.06,Rain,Rain,290,2013-03-12 10:15:00
6:35 AM,46.4,46.4,100,29.78,4.0,WSW,9.2,-,0.19,Rain,Light Rain,240,2013-03-12 10:35:00
6:55 AM,46.4,46.4,100,29.79,0.2,West,5.8,-,0.01,Rain,Rain,260,2013-03-12 10:55:00
7:15 AM,42.8,42.8,100,29.79,0.2,NNW,9.2,-,0.06,Rain,Light Rain,340,2013-03-12 11:15:00
7:35 AM,39.2,39.2,100,29.80,0.2,NW,13.8,-,0.06,,Drizzle,310,2013-03-12 11:35:00
7:55 AM,37.4,37.4,100,29.80,0.2,WNW,19.6,-,N/A,Snow,Snow,290,2013-03-12 11:55:00
8:15 AM,37.4,37.4,100,29.81,0.2,West,18.4,-,0.01,Rain,Light Rain,280,2013-03-12 12:15:00
8:35 AM,37.4,37.4,100,29.82,0.2,West,18.4,-,0.01,Snow,Light Snow,280,2013-03-12 12:35:00
8:55 AM,35.6,35.6,100,29.82,0.2,West,19.6,-,N/A,Snow,Light Snow,280,2013-03-12 12:55:00
9:15 AM,35.6,35.6,100,29.82,0.2,West,20.7,-,N/A,Snow,Snow,280,2013-03-12 13:15:00
9:35 AM,35.6,35.6,100,29.83,0.2,West,19.6,-,N/A,Snow,Light Snow,280,2013-03-12 13:35:00
9:55 AM,35.6,35.6,100,29.83,0.2,West,21.9,26.5,N/A,Snow,Light Snow,280,2013-03-12 13:55:00
10:15 AM,33.8,33.8,100,29.82,0.2,West,24.2,27.6,N/A,Fog,Fog,280,2013-03-12 14:15:00
10:35 AM,35.6,35.6,100,29.84,0.2,West,23.0,32.2,N/A,Fog,Fog,280,2013-03-12 14:35:00
10:55 AM,35.6,35.6,100,29.84,0.2,West,19.6,29.9,N/A,Fog,Fog,280,2013-03-12 14:55:00
11:15 AM,35.6,35.6,100,29.83,0.8,West,19.6,27.6,N/A,,Overcast,280,2013-03-12 15:15:00
11:35 AM,35.6,35.6,100,29.84,3.0,West,19.6,25.3,N/A,,Overcast,280,2013-03-12 15:35:00
11:55 AM,33.8,33.8,100,29.84,7.0,WNW,21.9,28.8,N/A,,Overcast,290,2013-03-12 15:55:00
12:15 PM,35.6,35.6,100,29.84,10.0,West,21.9,27.6,N/A,,Overcast,280,2013-03-12 16:15:00
12:35 PM,35.6,35.6,100,29.84,10.0,West,21.9,29.9,N/A,,Overcast,280,2013-03-12 16:35:00
12:55 PM,35.6,35.6,100,29.84,10.0,WNW,23.0,28.8,N/A,,Unknown,290,2013-03-12 16:55:00
1:15 PM,35.6,35.6,100,29.84,10.0,West,18.4,-,N/A,,Overcast,270,2013-03-12 17:15:00
1:35 PM,37.4,37.4,100,29.84,10.0,West,17.3,-,N/A,,Overcast,280,2013-03-12 17:35:00
1:55 PM,35.6,33.8,93,29.84,10.0,West,23.0,27.6,N/A,,Mostly Cloudy,280,2013-03-12 17:55:00
2:15 PM,37.4,33.8,87,29.85,10.0,West,24.2,29.9,N/A,,Scattered Clouds,280,2013-03-12 18:15:00
2:35 PM,37.4,32.0,81,29.84,10.0,West,24.2,-,N/A,,Clear,280,2013-03-12 18:35:00
2:55 PM,35.6,30.2,81,29.85,10.0,West,25.3,29.9,N/A,,Mostly Cloudy,280,2013-03-12 18:55:00
3:15 PM,35.6,30.2,81,29.85,10.0,West,21.9,28.8,N/A,,Mostly Cloudy,280,2013-03-12 19:15:00
3:35 PM,35.6,30.2,81,29.84,10.0,WNW,17.3,24.2,N/A,,Mostly Cloudy,290,2013-03-12 19:35:00
3:55 PM,35.6,30.2,81,29.84,10.0,WNW,13.8,19.6,N/A,,Scattered Clouds,290,2013-03-12 19:55:00
4:15 PM,35.6,30.2,81,29.84,10.0,West,13.8,18.4,N/A,,Scattered Clouds,280,2013-03-12 20:15:00
4:35 PM,35.6,28.4,75,29.84,10.0,West,17.3,20.7,N/A,,Scattered Clouds,280,2013-03-12 20:35:00
4:55 PM,35.6,28.4,75,29.85,10.0,West,13.8,25.3,N/A,,Scattered Clouds,280,2013-03-12 20:55:00
5:15 PM,35.6,28.4,75,29.85,10.0,West,16.1,-,N/A,,Scattered Clouds,280,2013-03-12 21:15:00
5:35 PM,35.6,28.4,75,29.85,10.0,WNW,15.0,21.9,N/A,,Scattered Clouds,290,2013-03-12 21:35:00
5:55 PM,35.6,26.6,70,29.85,10.0,West,19.6,23.0,N/A,,Clear,280,2013-03-12 21:55:00
6:15 PM,35.6,28.4,75,29.86,10.0,West,15.0,21.9,N/A,,Clear,280,2013-03-12 22:15:00
6:35 PM,33.8,26.6,75,29.87,10.0,WNW,17.3,24.2,N/A,,Clear,290,2013-03-12 22:35:00
6:55 PM,33.8,26.6,75,29.88,10.0,WNW,16.1,23.0,N/A,,Clear,290,2013-03-12 22:55:00
7:15 PM,30.2,26.6,86,29.88,10.0,WNW,20.7,27.6,N/A,,Clear,290,2013-03-12 23:15:00
7:35 PM,30.2,26.6,86,29.89,10.0,WNW,23.0,28.8,N/A,,Clear,290,2013-03-12 23:35:00
7:55 PM,28.4,26.6,93,29.89,10.0,WNW,17.3,29.9,N/A,,Scattered Clouds,290,2013-03-12 23:55:00
8:15 PM,28.4,26.6,93,29.90,10.0,WNW,17.3,25.3,N/A,,Scattered Clouds,290,2013-03-13 00:15:00
8:35 PM,28.4,24.8,86,29.91,10.0,WNW,18.4,-,N/A,,Scattered Clouds,290,2013-03-13 00:35:00
8:55 PM,28.4,24.8,86,29.91,10.0,West,17.3,23.0,N/A,,Scattered Clouds,280,2013-03-13 00:55:00
9:15 PM,28.4,24.8,86,29.91,10.0,WNW,17.3,24.2,N/A,,Mostly Cloudy,290,2013-03-13 01:15:00
9:35 PM,26.6,24.8,93,29.92,10.0,WNW,13.8,21.9,N/A,,Scattered Clouds,290,2013-03-13 01:35:00
9:55 PM,26.6,24.8,93,29.92,10.0,WNW,17.3,21.9,N/A,,Scattered Clouds,290,2013-03-13 01:55:00
10:15 PM,26.6,24.8,93,29.92,10.0,WNW,16.1,24.2,N/A,,Scattered Clouds,290,2013-03-13 02:15:00
10:35 PM,26.6,24.8,93,29.92,10.0,WNW,17.3,-,N/A,,Scattered Clouds,290,2013-03-13 02:35:00
10:55 PM,26.6,24.8,93,29.93,10.0,WNW,20.7,24.2,N/A,,Mostly Cloudy,290,2013-03-13 02:55:00
11:15 PM,26.6,24.8,93,29.93,10.0,WNW,15.0,23.0,N/A,,Mostly Cloudy,290,2013-03-13 03:15:00
11:35 PM,26.6,24.8,93,29.93,10.0,WNW,11.5,21.9,N/A,,Overcast,290,2013-03-13 03:35:00
11:36 PM,26.6,24.8,93,29.93,10.0,WNW,10.4,21.9,N/A,,Overcast,290,2013-03-13 03:36:00
11:55 PM,26.6,24.8,93,29.94,10.0,WNW,11.5,17.3,N/A,,Overcast,300,2013-03-13 03:55:00